Lake Hood, AK

5:06 PM AKDT on July 20, 2017 (GMT -0800)
Lake Hood

Weather History for PALH - September, 2013

Change the Weather History Date:

Thursday, September 12, 2013

  Actual Average Record
Temperature  
Mean Temperature 54 °F -  
Max Temperature 61 °F 55 °F 70 °F (2010)
Min Temperature 48 °F 41 °F 44 °F (2000)
Degree Days  
Heating Degree Days 11    
Growing Degree Days 4 (Base 50)    
Moisture  
Dew Point 46 °F    
Average Humidity 75    
Maximum Humidity 93    
Minimum Humidity 55    
Precipitation  
Precipitation 0.00 in - - ()
Sea Level Pressure  
Sea Level Pressure 29.96 in    
Wind  
Wind Speed 4 mph (ESE)    
Max Wind Speed 9 mph    
Max Gust Speed 20 mph    
Visibility 10 miles    
Events      
Averages and records for this station are not official NWS values.
T = Trace of Precipitation, MM = Missing Value Source: NWS Daily Summary

Daily Weather History Graph

Daily Weather History Graph

Search for Another Location

Airport or City:

Trip Planner

Search our weather history database for the weather conditions in past years. The results will help you decide how hot, cold, wet, or windy it might be!

Date:

Astronomy

Sep. 12, 2013 Rise Set
Actual Time 7:20 AM AKDT 8:30 PM AKDT
Civil Twilight 6:35 AM AKDT 9:14 PM AKDT
Nautical Twilight 5:40 AM AKDT 10:09 PM AKDT
Astronomical Twilight 4:34 AM AKDT 11:13 PM AKDT
Moon 4:51 PM AKDT (9/12) 11:43 PM AKDT (9/12)
Length of Visible Light 14h 38m
Length of Day
13h 09m
First Quarter, 51% of the Moon is Illuminated
Sep 12
First Quarter
Sep 19
Full
Sep 26
Last Quarter
Oct 4
New
Oct 11
First Quarter

Hourly Weather History & Observations

Time (AKDT) Temp. Dew Point Humidity Pressure Visibility Wind Dir Wind Speed Gust Speed Precip Events Conditions
12:53 AM 55.0 °F 48.0 °F 77% 29.92 in 10.0 mi SSW 6.9 mph 16.1 mph 0.00 in   Overcast
1:53 AM 53.1 °F 48.9 °F 86% 29.93 in 10.0 mi ENE 3.5 mph - N/A   Overcast
2:53 AM 52.0 °F 48.9 °F 89% 29.95 in 10.0 mi Calm Calm - N/A   Overcast
3:53 AM 52.0 °F 48.9 °F 89% 29.96 in 10.0 mi Calm Calm - N/A   Overcast
4:45 AM 53.6 °F 48.2 °F 82% 29.96 in 10.0 mi SE 3.5 mph - N/A   Overcast
4:53 AM 53.1 °F 48.0 °F 83% 29.96 in 10.0 mi SSE 4.6 mph - N/A   Overcast
5:04 AM 53.6 °F 48.2 °F 82% 29.96 in 10.0 mi Calm Calm - N/A   Overcast
5:53 AM 50.0 °F 46.9 °F 89% 29.97 in 10.0 mi NE 6.9 mph - N/A   Mostly Cloudy
6:53 AM 48.9 °F 46.9 °F 93% 29.97 in 10.0 mi Calm Calm - N/A   Partly Cloudy
7:53 AM 48.0 °F 45.0 °F 89% 29.98 in 10.0 mi Calm Calm - N/A   Clear
8:53 AM 48.9 °F 46.0 °F 90% 29.99 in 10.0 mi Calm Calm - N/A   Clear
9:53 AM 50.0 °F 46.9 °F 89% 29.99 in 10.0 mi Calm Calm - N/A   Clear
10:53 AM 53.1 °F 46.9 °F 80% 29.99 in 10.0 mi North 3.5 mph - N/A   Clear
11:53 AM 53.1 °F 46.9 °F 80% 29.99 in 10.0 mi NE 6.9 mph - N/A   Clear
12:53 PM 57.0 °F 46.9 °F 69% 30.00 in 10.0 mi NE 4.6 mph - N/A   Scattered Clouds
1:53 PM 57.0 °F 46.9 °F 69% 30.00 in 10.0 mi NE 4.6 mph - N/A   Overcast
2:53 PM 57.9 °F 46.9 °F 67% 29.99 in 10.0 mi NE 4.6 mph - N/A   Mostly Cloudy
3:53 PM 60.1 °F 46.9 °F 62% 29.97 in 10.0 mi North 6.9 mph - N/A   Scattered Clouds
4:53 PM 59.0 °F 46.9 °F 64% 29.96 in 10.0 mi Calm Calm - N/A   Overcast
5:53 PM 59.0 °F 43.0 °F 55% 29.95 in 10.0 mi Variable 4.6 mph - N/A   Overcast
6:53 PM 57.9 °F 43.0 °F 58% 29.93 in 10.0 mi South 9.2 mph 19.6 mph N/A   Overcast
7:53 PM 57.0 °F 44.1 °F 62% 29.93 in 10.0 mi South 4.6 mph - N/A   Overcast
8:53 PM 55.9 °F 45.0 °F 67% 29.94 in 10.0 mi South 4.6 mph - N/A   Overcast
9:53 PM 55.0 °F 42.1 °F 62% 29.94 in 10.0 mi SSE 9.2 mph 16.1 mph N/A   Overcast
10:53 PM 54.0 °F 42.1 °F 64% 29.94 in 10.0 mi SE 6.9 mph - N/A   Overcast
11:53 PM 55.0 °F 41.0 °F 59% 29.95 in 10.0 mi South 5.8 mph - N/A   Overcast